Weather History for Missoula, MT

Change the Weather History Date:

Friday, March 8, 2013

  Actual Average Record
Temperature  
Mean Temperature 35 °F 36 °F  
Max Temperature 49 °F 47 °F 66 °F (1906)
Min Temperature 20 °F 26 °F -6 °F (1951)
Degree Days  
Heating Degree Days 30 29  
Month to date heating degree days 234 239  
Since 1 July heating degree days 5225 5608  
Cooling Degree Days 0 0  
Month to date cooling degree days 0 0  
Year to date cooling degree days 0 0  
Moisture  
Dew Point 21 °F    
Average Humidity 64    
Maximum Humidity 91    
Minimum Humidity 36    
Precipitation  
Precipitation 0.00 in 0.03 in 0.80 in (1904)
Month to date precipitation 0.21 0.23  
Year to date precipitation 1.67 1.78  
Snow  
Snow 0.00 in - - ()
Month to date snowfall 1.8  
Year to date snowfall 17.4  
Since 1 July snowfall 38.5  
Snow Depth 0.00 in    
Sea Level Pressure  
Sea Level Pressure 30.07 in    
Wind  
Wind Speed 3 mph (NNW)    
Max Wind Speed 18 mph    
Max Gust Speed 23 mph    
Visibility 10 miles    
Events      
T = Trace of Precipitation, MM = Missing Value Source: NWS Daily Summary

Daily Weather History Graph

Daily Weather History Graph

Search for Another Location

Airport:

Trip Planner

Search our weather history database for the weather conditions in past years. The results will help you decide how hot, cold, wet, or windy it might be!

Date:

Astronomy

Mar. 08, 2013 Rise Set
Actual Time 7:02 AM MST 6:32 PM MST
Civil Twilight 6:31 AM MST 7:02 PM MST
Nautical Twilight 5:56 AM MST 7:38 PM MST
Astronomical Twilight 5:21 AM MST 8:13 PM MST
Moon 4:59 AM MST (3/8) 3:23 PM MST (3/8)
Length of Visible Light 12h 30m
Length of Day
11h 30m
Waning Crescent, 11% of the Moon is Illuminated
Mar 8
Waning Crescent
Mar 11
New
Mar 19
First Quarter
Mar 27
Full
Apr 2
Last Quarter

Hourly Weather History & Observations

Time (MST) Temp. Windchill Dew Point Humidity Pressure Visibility Wind Dir Wind Speed Gust Speed Precip Events Conditions
12:53 AM 26.1 °F - 19.9 °F 78% 30.11 in 10.0 mi Calm Calm - N/A   Clear
1:53 AM 25.0 °F - 19.9 °F 81% 30.11 in 10.0 mi Calm Calm - N/A   Clear
2:53 AM 24.1 °F - 19.0 °F 81% 30.11 in 10.0 mi Calm Calm - N/A   Clear
3:53 AM 23.0 °F - 19.0 °F 85% 30.10 in 10.0 mi Calm Calm - N/A   Clear
4:53 AM 23.0 °F - 18.0 °F 81% 30.10 in 10.0 mi Calm Calm - N/A   Clear
5:53 AM 19.9 °F - 17.1 °F 89% 30.11 in 10.0 mi Calm Calm - N/A   Clear
6:53 AM 19.9 °F - 17.1 °F 89% 30.12 in 10.0 mi Calm Calm - N/A   Clear
7:53 AM 23.0 °F - 19.0 °F 85% 30.13 in 10.0 mi Calm Calm - N/A   Clear
8:53 AM 27.0 °F - 21.9 °F 81% 30.12 in 10.0 mi Calm Calm - N/A   Clear
9:53 AM 30.0 °F - 23.0 °F 75% 30.11 in 10.0 mi Calm Calm - N/A   Clear
10:53 AM 33.1 °F - 24.1 °F 70% 30.09 in 10.0 mi Calm Calm - N/A   Clear
11:53 AM 37.0 °F - 25.0 °F 62% 30.07 in 10.0 mi Calm Calm - N/A   Clear
12:53 PM 39.9 °F - 23.0 °F 51% 30.05 in 10.0 mi Calm Calm - N/A   Clear
1:53 PM 44.1 °F 41.5 °F 23.0 °F 43% 30.01 in 10.0 mi Variable 4.6 mph - N/A   Clear
2:53 PM 46.9 °F - 21.9 °F 37% 29.98 in 10.0 mi NW 6.9 mph - N/A   Clear
3:53 PM 48.0 °F - 23.0 °F 37% 29.98 in 10.0 mi North 11.5 mph - N/A   Clear
4:53 PM 46.9 °F - 23.0 °F 39% 29.98 in 10.0 mi North 11.5 mph 20.7 mph N/A   Clear
5:53 PM 44.1 °F 37.1 °F 21.0 °F 40% 30.00 in 10.0 mi NNE 15.0 mph 21.9 mph N/A   Clear
6:53 PM 41.0 °F 35.2 °F 19.9 °F 43% 30.02 in 10.0 mi NNE 9.2 mph 18.4 mph N/A   Clear
7:53 PM 35.1 °F 30.1 °F 21.9 °F 59% 30.06 in 10.0 mi WNW 5.8 mph - N/A   Clear
8:53 PM 30.9 °F 26.2 °F 21.9 °F 69% 30.09 in 10.0 mi NW 4.6 mph - N/A   Clear
9:53 PM 32.0 °F - 21.9 °F 66% 30.10 in 10.0 mi Calm Calm - N/A   Clear
10:53 PM 30.0 °F - 21.9 °F 72% 30.11 in 10.0 mi Calm Calm - N/A   Clear
11:53 PM 30.0 °F - 21.0 °F 69% 30.12 in 10.0 mi Calm Calm - N/A   Clear